Aérodrome :
LOGIN :

S'inscrire | Disclaimer

   EN    FR    IT 

 










Légende :    VFR   VFR Marginal   IFR   IFR Intensif   IFR Très Intensif
Visi : 
Plafond : 
>= 8 km
>= 3000ft
5 à 8 km
1000 à 3000 ft
1500m à 5 km
500 à 1000 ft
800 à 1500m
200 à 500 ft
< 800m
< 200 ft
Symboles :   Orages  Brouillard  Fortes neiges  Fortes précipitations  Vent > 20 kt
SIGMETs :   Divers  Orages  Givrage  Turbulence  Onde Orograph.  Cendres Volcan.







- Altitude de l'aérodrome : 313 ft
- Voir les cartes d'approche


LFQA - Reims-Prunay

DERNIER METAR :
  • 230430Z AUTO 17005KT 150V220 8000 -SNRA OVC008 00/00 Q0994

METARs EXPIRÉS :
  • 230400Z AUTO 15008KT 5000 -SN BR BKN008 OVC014 00/M00 Q0994
  • 230330Z AUTO 15008KT 9999 PL OVC007 00/M00 Q0995
  • 230300Z AUTO 16008KT 9000 -SN OVC006 00/M00 Q0995
  • 230230Z AUTO 15008KT 6000 -SN BKN005 OVC011 M00/M00 Q0995
  • 230200Z AUTO 16010KT 4000 SN BR OVC004 M00/M00 Q0996

TAF N/A
Pas de NOTAMs connus pour ce terrain.



MET'MAP, la Météo Aéronautique d'un coup d'oeil ! - Copyright ORBIFLY Décembre 2007 - Disclaimer

ORBIFLY MET'MAP TEAM :

Programmation & Développement : Alexandra Zaïnal
Conception & Développement : Baudouin d'Aumeries
Co-Programmation & Développement : Marc-Olivier Méhu
Soutien technique & logistique : Manuel Goepfert

Contact : metmap@orbifly.com




SOURCES & CREDITS :

   NOAA